LVKND SAZN-SAZS

Flight info

Callsign LVKND
Flight time 1h 0m
Altitude 26000
Route R207 DCT KOMVI T654 ORERA ORERA2Q
Aircraft P46T/L-SDFGIRY/S

Departure

Time 2026-05-07 14:54
Airport Presidente Perón International Airport (SAZN)

Arrival

Time 2026-05-07 15:54
Airport Teniente Luis Candelaria International Airport (SAZS)
Time Latitude Longitude Altitude Speed Heading
2026-05-07 14:43 -38.95299 -68.14666 898 ft 0 kts 180°
2026-05-07 14:49 -38.95300 -68.14666 898 ft 0 kts 179°
2026-05-07 14:50 -38.95275 -68.14669 898 ft 11 kts 342°
2026-05-07 14:50 -38.95211 -68.14733 898 ft 13 kts 310°
2026-05-07 14:50 -38.95145 -68.14826 898 ft 15 kts 316°
2026-05-07 14:50 -38.95092 -68.14786 898 ft 15 kts 83°
2026-05-07 14:51 -38.95095 -68.14642 898 ft 18 kts 89°
2026-05-07 14:51 -38.95094 -68.14470 898 ft 20 kts 90°
2026-05-07 14:51 -38.95094 -68.14276 899 ft 23 kts 93°
2026-05-07 14:51 -38.95081 -68.14122 899 ft 13 kts 25°
2026-05-07 14:52 -38.95053 -68.14115 899 ft 0 kts 11°
2026-05-07 14:52 -38.95007 -68.14112 899 ft 15 kts 359°
2026-05-07 14:53 -38.94907 -68.14104 901 ft 9 kts 328°
2026-05-07 14:53 -38.94903 -68.14121 901 ft 0 kts 267°
2026-05-07 14:53 -38.94903 -68.14260 900 ft 49 kts 270°
2026-05-07 14:54 -38.94899 -68.14980 980 ft 104 kts 270°
2026-05-07 14:54 -38.94911 -68.15995 1382 ft 125 kts 257°
2026-05-07 14:54 -38.95443 -68.16908 1952 ft 138 kts 215°
2026-05-07 14:54 -38.96376 -68.17322 2635 ft 146 kts 202°
2026-05-07 14:55 -38.97389 -68.17685 3137 ft 156 kts 204°
2026-05-07 14:55 -38.98380 -68.18208 3843 ft 149 kts 209°
2026-05-07 14:55 -38.99304 -68.18783 4613 ft 143 kts 211°
2026-05-07 14:55 -39.00117 -68.19310 5657 ft 120 kts 209°
2026-05-07 14:56 -39.00826 -68.19755 6465 ft 114 kts 210°
2026-05-07 14:56 -39.01543 -68.20238 7087 ft 117 kts 211°
2026-05-07 14:56 -39.02263 -68.20734 7716 ft 117 kts 211°
2026-05-07 14:56 -39.02985 -68.21236 8348 ft 118 kts 211°
2026-05-07 14:57 -39.03701 -68.21735 8981 ft 119 kts 211°
2026-05-07 14:57 -39.04434 -68.22248 9639 ft 120 kts 211°
2026-05-07 14:57 -39.05174 -68.22765 10244 ft 121 kts 212°
2026-05-07 14:57 -39.05915 -68.23284 10802 ft 124 kts 212°
2026-05-07 14:58 -39.06683 -68.23822 11390 ft 126 kts 212°
2026-05-07 14:58 -39.07458 -68.24363 11981 ft 128 kts 213°
2026-05-07 14:58 -39.08239 -68.24911 12570 ft 130 kts 213°
2026-05-07 14:58 -39.09045 -68.25475 13158 ft 133 kts 214°
2026-05-07 14:59 -39.09870 -68.26053 13762 ft 136 kts 214°
2026-05-07 14:59 -39.10707 -68.26639 14316 ft 137 kts 214°
2026-05-07 14:59 -39.11547 -68.27228 14877 ft 137 kts 213°
2026-05-07 14:59 -39.12388 -68.27818 15454 ft 138 kts 213°
2026-05-07 15:00 -39.13236 -68.28412 16009 ft 139 kts 213°
2026-05-07 15:00 -39.14083 -68.29007 16594 ft 139 kts 212°
2026-05-07 15:00 -39.14924 -68.29596 17167 ft 139 kts 212°
2026-05-07 15:00 -39.15778 -68.30195 17755 ft 140 kts 212°
2026-05-07 15:01 -39.16635 -68.30797 18340 ft 140 kts 211°
2026-05-07 15:01 -39.17496 -68.31402 18866 ft 139 kts 211°
2026-05-07 15:01 -39.18327 -68.31986 19431 ft 136 kts 210°
2026-05-07 15:01 -39.19149 -68.32563 19997 ft 133 kts 210°
2026-05-07 15:02 -39.19952 -68.33127 20576 ft 130 kts 209°
2026-05-07 15:02 -39.20736 -68.33678 21150 ft 127 kts 208°
2026-05-07 15:02 -39.21496 -68.34213 21724 ft 124 kts 208°
2026-05-07 15:02 -39.22250 -68.34743 22292 ft 122 kts 207°
2026-05-07 15:03 -39.22991 -68.35265 22894 ft 119 kts 207°
2026-05-07 15:03 -39.23706 -68.35768 23462 ft 117 kts 207°
2026-05-07 15:03 -39.24424 -68.36273 23958 ft 116 kts 206°
2026-05-07 15:03 -39.25141 -68.36778 24380 ft 118 kts 206°
2026-05-07 15:04 -39.25862 -68.37285 24806 ft 118 kts 206°
2026-05-07 15:04 -39.26589 -68.37797 25236 ft 119 kts 206°
2026-05-07 15:04 -39.27311 -68.38304 25668 ft 121 kts 205°
2026-05-07 15:04 -39.28063 -68.38835 25998 ft 128 kts 205°
2026-05-07 15:05 -39.28916 -68.39436 26018 ft 149 kts 206°
2026-05-07 15:05 -39.29880 -68.40122 26022 ft 166 kts 206°
2026-05-07 15:05 -39.30928 -68.40866 26021 ft 181 kts 206°
2026-05-07 15:05 -39.32070 -68.41674 26024 ft 192 kts 206°
2026-05-07 15:06 -39.33277 -68.42528 26022 ft 201 kts 207°
2026-05-07 15:06 -39.34531 -68.43415 26019 ft 208 kts 207°
2026-05-07 15:06 -39.35801 -68.44313 26021 ft 213 kts 207°
2026-05-07 15:06 -39.37118 -68.45244 26024 ft 216 kts 207°
2026-05-07 15:07 -39.38452 -68.46187 26025 ft 219 kts 207°
2026-05-07 15:07 -39.39785 -68.47131 26022 ft 221 kts 207°
2026-05-07 15:07 -39.41143 -68.48091 26023 ft 222 kts 207°
2026-05-07 15:07 -39.42507 -68.49057 26023 ft 223 kts 207°
2026-05-07 15:08 -39.43862 -68.50017 26021 ft 224 kts 207°
2026-05-07 15:08 -39.45234 -68.50988 26021 ft 225 kts 207°
2026-05-07 15:08 -39.46613 -68.51966 26020 ft 225 kts 207°
2026-05-07 15:08 -39.47990 -68.52943 26021 ft 225 kts 207°
2026-05-07 15:09 -39.49355 -68.53910 26021 ft 226 kts 207°
2026-05-07 15:09 -39.50738 -68.54893 26023 ft 226 kts 207°
2026-05-07 15:09 -39.51654 -68.55543 26019 ft 226 kts 207°
2026-05-07 15:09 -39.53039 -68.56526 26018 ft 227 kts 207°
2026-05-07 15:10 -39.54422 -68.57509 26016 ft 227 kts 207°
2026-05-07 15:10 -39.56257 -68.58814 26015 ft 227 kts 207°
2026-05-07 15:10 -39.57194 -68.59480 26015 ft 227 kts 207°
2026-05-07 15:10 -39.58580 -68.60466 26012 ft 227 kts 207°
2026-05-07 15:11 -39.60415 -68.61773 26016 ft 227 kts 207°
2026-05-07 15:11 -39.61334 -68.62427 26015 ft 227 kts 207°
2026-05-07 15:11 -39.62722 -68.63416 26016 ft 227 kts 207°
2026-05-07 15:11 -39.64111 -68.64405 26017 ft 227 kts 207°
2026-05-07 15:12 -39.65495 -68.65393 26013 ft 227 kts 207°
2026-05-07 15:12 -39.66887 -68.66387 26013 ft 228 kts 207°
2026-05-07 15:12 -39.68257 -68.67365 26013 ft 228 kts 207°
2026-05-07 15:12 -39.69657 -68.68365 26013 ft 228 kts 207°
2026-05-07 15:13 -39.71047 -68.69357 26011 ft 228 kts 207°
2026-05-07 15:13 -39.72428 -68.70344 26011 ft 229 kts 207°
2026-05-07 15:13 -39.73827 -68.71345 26015 ft 229 kts 207°
2026-05-07 15:13 -39.75225 -68.72345 26013 ft 228 kts 207°
2026-05-07 15:14 -39.76603 -68.73332 26013 ft 228 kts 207°
2026-05-07 15:14 -39.77997 -68.74331 26013 ft 229 kts 207°
2026-05-07 15:14 -39.79392 -68.75331 26012 ft 229 kts 207°
2026-05-07 15:14 -39.80792 -68.76334 26013 ft 229 kts 207°
2026-05-07 15:15 -39.82185 -68.77333 26012 ft 229 kts 207°
2026-05-07 15:15 -39.83563 -68.78322 26013 ft 229 kts 207°
2026-05-07 15:15 -39.84965 -68.79328 26014 ft 229 kts 207°
2026-05-07 15:15 -39.86365 -68.80334 26013 ft 229 kts 207°
2026-05-07 15:16 -39.87745 -68.81325 26014 ft 229 kts 207°
2026-05-07 15:16 -39.89145 -68.82332 26013 ft 229 kts 208°
2026-05-07 15:16 -39.90543 -68.83337 26012 ft 230 kts 208°
2026-05-07 15:16 -39.91950 -68.84349 26013 ft 230 kts 208°
2026-05-07 15:17 -39.93354 -68.85360 26015 ft 230 kts 208°
2026-05-07 15:17 -39.94743 -68.86360 26017 ft 230 kts 208°
2026-05-07 15:17 -39.96150 -68.87374 26017 ft 230 kts 208°
2026-05-07 15:17 -39.97562 -68.88392 26017 ft 230 kts 208°
2026-05-07 15:18 -39.98950 -68.89393 26015 ft 230 kts 208°
2026-05-07 15:18 -40.00354 -68.90406 26015 ft 230 kts 208°
2026-05-07 15:18 -40.01761 -68.91423 26017 ft 231 kts 208°
2026-05-07 15:18 -40.03173 -68.92441 26015 ft 231 kts 208°
2026-05-07 15:19 -40.04563 -68.93446 26017 ft 231 kts 208°
2026-05-07 15:19 -40.05977 -68.94468 26015 ft 231 kts 208°
2026-05-07 15:19 -40.07394 -68.95493 26016 ft 231 kts 208°
2026-05-07 15:19 -40.08794 -68.96506 26015 ft 232 kts 208°
2026-05-07 15:20 -40.10208 -68.97530 26017 ft 232 kts 208°
2026-05-07 15:20 -40.11626 -68.98557 26016 ft 232 kts 208°
2026-05-07 15:20 -40.13025 -68.99571 26019 ft 232 kts 208°
2026-05-07 15:20 -40.14444 -69.00600 26017 ft 233 kts 208°
2026-05-07 15:21 -40.15865 -69.01630 26019 ft 233 kts 208°
2026-05-07 15:21 -40.17286 -69.02662 26019 ft 233 kts 208°
2026-05-07 15:21 -40.18703 -69.03690 26015 ft 233 kts 208°
2026-05-07 15:21 -40.20108 -69.04711 26015 ft 233 kts 208°
2026-05-07 15:22 -40.21532 -69.05747 26012 ft 234 kts 208°
2026-05-07 15:22 -40.22958 -69.06783 26017 ft 234 kts 208°
2026-05-07 15:22 -40.24385 -69.07820 26018 ft 234 kts 208°
2026-05-07 15:22 -40.25806 -69.08855 26020 ft 234 kts 208°
2026-05-07 15:23 -40.27233 -69.09895 26021 ft 234 kts 208°
2026-05-07 15:23 -40.28641 -69.10920 26026 ft 235 kts 208°
2026-05-07 15:23 -40.30068 -69.11960 26018 ft 235 kts 208°
2026-05-07 15:23 -40.31495 -69.13008 26026 ft 235 kts 209°
2026-05-07 15:24 -40.32863 -69.14194 26030 ft 236 kts 213°
2026-05-07 15:24 -40.34155 -69.15544 25976 ft 239 kts 218°
2026-05-07 15:24 -40.35371 -69.17072 25842 ft 245 kts 221°
2026-05-07 15:24 -40.36498 -69.18780 25684 ft 251 kts 226°
2026-05-07 15:25 -40.37508 -69.20640 25511 ft 256 kts 230°
2026-05-07 15:25 -40.38471 -69.22618 25325 ft 257 kts 230°
2026-05-07 15:25 -40.39451 -69.24593 25146 ft 258 kts 230°
2026-05-07 15:25 -40.40432 -69.26582 24957 ft 259 kts 231°
2026-05-07 15:26 -40.41400 -69.28558 24774 ft 260 kts 231°
2026-05-07 15:26 -40.42376 -69.30551 24587 ft 259 kts 231°
2026-05-07 15:26 -40.43354 -69.32546 24406 ft 259 kts 231°
2026-05-07 15:26 -40.44315 -69.34508 24221 ft 256 kts 231°
2026-05-07 15:27 -40.45277 -69.36471 24038 ft 254 kts 231°
2026-05-07 15:27 -40.46228 -69.38413 23858 ft 252 kts 231°
2026-05-07 15:27 -40.47175 -69.40349 23680 ft 250 kts 231°
2026-05-07 15:27 -40.48119 -69.42277 23485 ft 249 kts 231°
2026-05-07 15:28 -40.49043 -69.44173 23296 ft 248 kts 231°
2026-05-07 15:28 -40.49974 -69.46080 23115 ft 247 kts 231°
2026-05-07 15:28 -40.50899 -69.47974 22930 ft 245 kts 231°
2026-05-07 15:28 -40.51809 -69.49841 22765 ft 245 kts 231°
2026-05-07 15:29 -40.52727 -69.51725 22590 ft 244 kts 231°
2026-05-07 15:29 -40.53642 -69.53604 22418 ft 243 kts 231°
2026-05-07 15:29 -40.54552 -69.55473 22247 ft 242 kts 231°
2026-05-07 15:29 -40.55450 -69.57321 22077 ft 242 kts 231°
2026-05-07 15:30 -40.56357 -69.59186 21901 ft 241 kts 231°
2026-05-07 15:30 -40.57261 -69.61046 21736 ft 240 kts 231°
2026-05-07 15:30 -40.58153 -69.62885 21563 ft 240 kts 231°
2026-05-07 15:30 -40.59049 -69.64732 21395 ft 239 kts 231°
2026-05-07 15:31 -40.59945 -69.66577 21225 ft 239 kts 231°
2026-05-07 15:31 -40.60839 -69.68425 21057 ft 238 kts 231°
2026-05-07 15:31 -40.61719 -69.70241 20889 ft 237 kts 231°
2026-05-07 15:31 -40.62605 -69.72071 20720 ft 237 kts 231°
2026-05-07 15:32 -40.63490 -69.73899 20549 ft 236 kts 231°
2026-05-07 15:32 -40.64373 -69.75727 20386 ft 235 kts 231°
2026-05-07 15:32 -40.65256 -69.77554 20216 ft 235 kts 231°
2026-05-07 15:32 -40.66126 -69.79355 20050 ft 234 kts 231°
2026-05-07 15:33 -40.67000 -69.81166 19883 ft 233 kts 231°
2026-05-07 15:33 -40.67872 -69.82974 19716 ft 233 kts 232°
2026-05-07 15:33 -40.68732 -69.84758 19552 ft 232 kts 232°
2026-05-07 15:33 -40.69597 -69.86554 19386 ft 232 kts 232°
2026-05-07 15:34 -40.70460 -69.88346 19220 ft 231 kts 232°
2026-05-07 15:34 -40.71322 -69.90139 19058 ft 231 kts 232°
2026-05-07 15:34 -40.72174 -69.91910 18894 ft 230 kts 232°
2026-05-07 15:34 -40.73032 -69.93695 18732 ft 230 kts 232°
2026-05-07 15:35 -40.73889 -69.95479 18565 ft 229 kts 232°
2026-05-07 15:35 -40.74733 -69.97237 18403 ft 228 kts 232°
2026-05-07 15:35 -40.75585 -69.99014 18224 ft 228 kts 232°
2026-05-07 15:35 -40.76423 -70.00760 18049 ft 227 kts 232°
2026-05-07 15:36 -40.77276 -70.02539 17882 ft 226 kts 232°
2026-05-07 15:36 -40.78104 -70.04265 17716 ft 224 kts 232°
2026-05-07 15:36 -40.78936 -70.06001 17566 ft 223 kts 232°
2026-05-07 15:36 -40.79767 -70.07739 17408 ft 223 kts 232°
2026-05-07 15:37 -40.80587 -70.09457 17249 ft 224 kts 232°
2026-05-07 15:37 -40.81422 -70.11203 17084 ft 224 kts 232°
2026-05-07 15:37 -40.82257 -70.12951 16927 ft 224 kts 232°
2026-05-07 15:37 -40.83090 -70.14696 16763 ft 224 kts 232°
2026-05-07 15:38 -40.83917 -70.16436 16606 ft 223 kts 232°
2026-05-07 15:38 -40.84746 -70.18165 16447 ft 224 kts 232°
2026-05-07 15:38 -40.85568 -70.19885 16284 ft 224 kts 232°
2026-05-07 15:38 -40.86396 -70.21633 16131 ft 223 kts 232°
2026-05-07 15:39 -40.87225 -70.23374 15971 ft 223 kts 232°
2026-05-07 15:39 -40.88043 -70.25091 15812 ft 224 kts 232°
2026-05-07 15:39 -40.88876 -70.26842 15653 ft 224 kts 232°
2026-05-07 15:39 -40.89704 -70.28586 15493 ft 223 kts 232°
2026-05-07 15:40 -40.90519 -70.30301 15336 ft 222 kts 232°
2026-05-07 15:40 -40.91338 -70.32026 15185 ft 221 kts 232°
2026-05-07 15:40 -40.92155 -70.33749 15021 ft 221 kts 232°
2026-05-07 15:40 -40.92974 -70.35471 14869 ft 220 kts 232°
2026-05-07 15:41 -40.93779 -70.37171 14714 ft 221 kts 232°
2026-05-07 15:41 -40.94604 -70.38914 14556 ft 224 kts 232°
2026-05-07 15:41 -40.95423 -70.40647 14395 ft 223 kts 232°
2026-05-07 15:41 -40.96250 -70.42395 14230 ft 224 kts 232°
2026-05-07 15:42 -40.97079 -70.44146 14082 ft 223 kts 232°
2026-05-07 15:42 -40.97987 -70.45771 14065 ft 215 kts 225°
2026-05-07 15:42 -40.98937 -70.47273 14064 ft 213 kts 226°
2026-05-07 15:42 -40.99858 -70.48777 14065 ft 211 kts 226°
2026-05-07 15:43 -41.00785 -70.50282 14066 ft 210 kts 226°
2026-05-07 15:43 -41.01716 -70.51788 14065 ft 210 kts 226°
2026-05-07 15:43 -41.02632 -70.53272 14064 ft 210 kts 226°
2026-05-07 15:43 -41.03561 -70.54777 14064 ft 209 kts 226°
2026-05-07 15:44 -41.04479 -70.56266 14072 ft 209 kts 226°
2026-05-07 15:44 -41.05399 -70.57756 14064 ft 209 kts 226°
2026-05-07 15:44 -41.06316 -70.59246 14042 ft 210 kts 226°
2026-05-07 15:44 -41.07236 -70.60738 13961 ft 212 kts 226°
2026-05-07 15:45 -41.08185 -70.62289 13484 ft 216 kts 227°
2026-05-07 15:45 -41.09129 -70.63832 12883 ft 214 kts 226°
2026-05-07 15:45 -41.10072 -70.65360 12302 ft 213 kts 226°
2026-05-07 15:45 -41.11003 -70.66868 11734 ft 213 kts 226°
2026-05-07 15:46 -41.12818 -70.69825 10672 ft 212 kts 226°
2026-05-07 15:46 -41.13751 -70.71346 10148 ft 212 kts 226°
2026-05-07 15:46 -41.14671 -70.72844 9585 ft 212 kts 226°
2026-05-07 15:47 -41.15608 -70.74368 8996 ft 212 kts 227°
2026-05-07 15:47 -41.16544 -70.75897 8417 ft 213 kts 229°
2026-05-07 15:47 -41.17474 -70.77437 7934 ft 214 kts 232°
2026-05-07 15:47 -41.18195 -70.79129 7530 ft 214 kts 243°
2026-05-07 15:48 -41.18650 -70.81009 7289 ft 209 kts 254°
2026-05-07 15:48 -41.18820 -70.82890 7243 ft 204 kts 264°
2026-05-07 15:48 -41.18712 -70.84811 6998 ft 212 kts 274°
2026-05-07 15:48 -41.18494 -70.86757 6745 ft 213 kts 274°
2026-05-07 15:49 -41.18298 -70.88696 6489 ft 211 kts 274°
2026-05-07 15:49 -41.18398 -70.90571 6210 ft 205 kts 250°
2026-05-07 15:49 -41.19109 -70.92163 6183 ft 198 kts 230°
2026-05-07 15:49 -41.20177 -70.93297 6186 ft 194 kts 220°
2026-05-07 15:50 -41.21063 -70.94566 6202 ft 185 kts 242°
2026-05-07 15:50 -41.21444 -70.96160 6207 ft 184 kts 262°
2026-05-07 15:50 -41.21297 -70.97858 6212 ft 188 kts 284°
2026-05-07 15:50 -41.20749 -70.99476 6054 ft 197 kts 290°
2026-05-07 15:51 -41.20168 -71.01164 5667 ft 203 kts 290°
2026-05-07 15:51 -41.19578 -71.02864 5228 ft 197 kts 291°
2026-05-07 15:51 -41.19032 -71.04414 4788 ft 179 kts 290°
2026-05-07 15:51 -41.18542 -71.05838 4315 ft 160 kts 290°
2026-05-07 15:52 -41.18092 -71.07132 3927 ft 147 kts 291°
2026-05-07 15:52 -41.17662 -71.08280 3648 ft 131 kts 294°
2026-05-07 15:52 -41.17252 -71.09403 3514 ft 142 kts 291°
2026-05-07 15:52 -41.16862 -71.10600 3374 ft 130 kts 290°
2026-05-07 15:53 -41.16546 -71.11582 3224 ft 103 kts 289°
2026-05-07 15:53 -41.16284 -71.12377 3130 ft 81 kts 289°
2026-05-07 15:53 -41.16067 -71.13008 3025 ft 73 kts 289°
2026-05-07 15:53 -41.15845 -71.13649 2925 ft 78 kts 290°
2026-05-07 15:54 -41.15622 -71.14297 2821 ft 76 kts 289°
2026-05-07 15:54 -41.15411 -71.14907 2749 ft 66 kts 291°
2026-05-07 15:54 -41.15260 -71.15346 2746 ft 42 kts 298°
2026-05-07 15:54 -41.15154 -71.15651 2745 ft 33 kts 295°
2026-05-07 15:55 -41.15061 -71.15913 2747 ft 30 kts 295°
2026-05-07 15:55 -41.14977 -71.16153 2749 ft 28 kts 290°
2026-05-07 15:55 -41.14895 -71.16333 2749 ft 18 kts 349°
2026-05-07 15:55 -41.14825 -71.16298 2745 ft 0 kts 17°
2026-05-07 15:56 -41.14824 -71.16298 2745 ft 1 kts 16°
2026-05-07 15:56 -41.14781 -71.16277 2744 ft 12 kts
2026-05-07 15:56 -41.14705 -71.16266 2744 ft 0 kts 22°